sat.trackr.live / text

‹ back to catalog

STARLINK-4506

NORAD 53554 · 2022-101AD

PAYLOAD ACTIVE UNKNOWN

§ Identity

Operator
Country
US
Launch date
2022-08-19
Launch site
AFETR
Launch vehicle
Mass (kg)
RCS (m²)

Purposes: comms

External: N2YO · Heavens-Above · Gunter

§ Orbital elements

Epoch: 2026-05-25T02:25:28.465824Z

Period
95.44 min
Inclination
53.2143°
Eccentricity
0.0001574
Mean motion
15.08840233 rev/d
Perigee alt
538.7 km
Apogee alt
540.8 km
Semi-major
6,917.9 km
B*
2.5426e-5
RAAN
81.1053°
Arg perigee
66.6736°
Mean anomaly
293.4421°
Rev number
20,784

§ Raw data

STARLINK-45061 53554U 22101AD  26145.10102391  .00000117  00000+0  25426-4 0  99942 53554  53.2143  81.1053 0001574  66.6736 293.4421 15.08840233207841

JSON: /api/v1/satellites/53554 · /tle

For live sub-satellite position, see the globe view (requires WebGL).

§ Visibility from observer

Set your observer location to see the next 7 days of passes ≥ 10°. The values pass through the URL so the page stays shareable.

No JS? Fill the form by hand. The geolocation button needs JavaScript.